FW9446 Weather Reports


Display with metric or nautical units.
time (UTC)temp
F
wind
direction
speed
MPH
gust
MPH
rain 1hr
in
rain 24hr
in
rain mn
in
humidity
%
barometer
mb
20260903195100 93 0 0.0 0.0 0.00 0.00 0.00 68 1016.7
20260903194601 94 0 0.0 0.0 0.00 0.00 0.00 65 1016.7
20260903194057 96 0 0.0 0.0 0.00 0.00 0.00 61 1016.7
20260903193600 97 0 0.0 0.0 0.00 0.00 0.00 61 1016.7
20260903193107 97 0 0.0 0.0 0.00 0.00 0.00 62 1016.7
20260903192557 97 0 0.0 0.0 0.00 0.00 0.00 57 1016.8
20260903192057 96 0 0.0 0.0 0.00 0.00 0.00 54 1017.0
20260903191602 96 0 0.0 0.0 0.00 0.00 0.00 58 1017.0
20260903191057 97 0 0.0 0.0 0.00 0.00 0.00 56 1017.0
20260903190558 96 0 0.0 0.0 0.00 0.00 0.00 56 1017.1
20260903185557 96 0 0.0 0.0 0.00 0.00 0.00 58 1017.2
20260903185057 96 0 0.0 0.0 0.00 0.00 0.00 60 1017.3
20260903184606 96 0 0.0 0.0 0.00 0.00 0.00 65 1017.4
20260903184057 96 0 0.0 0.0 0.00 0.00 0.00 59 1017.4
20260903183600 96 0 0.0 0.0 0.00 0.00 0.00 56 1017.5
20260903183102 96 0 0.0 0.0 0.00 0.00 0.00 59 1017.4
20260903182558 95 0 0.0 0.0 0.00 0.00 0.00 60 1017.6
20260903182057 95 0 0.0 0.0 0.00 0.00 0.00 59 1017.7
20260903181607 95 0 0.0 0.0 0.00 0.00 0.00 57 1017.8
20260903181057 95 0 0.0 0.0 0.00 0.00 0.00 58 1017.9
20260903180557 95 0 0.0 0.0 0.00 0.00 0.00 61 1018.0
20260903180115 95 0 0.0 0.0 0.00 0.00 0.00 60 1018.0
20260903175556 94 0 0.0 0.0 0.00 0.00 0.00 61 1018.0
20260903175057 94 0 0.0 0.0 0.00 0.00 0.00 68 1018.1
20260903174613 94 0 0.0 0.0 0.00 0.00 0.00 59 1018.1
20260903174059 94 0 0.0 0.0 0.00 0.00 0.00 66 1018.1
20260903173557 94 0 0.0 0.0 0.00 0.00 0.00 63 1018.1
20260903173117 93 0 0.0 0.0 0.00 0.00 0.00 63 1018.3
20260903172557 93 0 0.0 0.0 0.00 0.00 0.00 61 1018.3
20260903172057 94 0 0.0 0.0 0.00 0.00 0.00 69 1018.3
20260903171603 94 0 0.0 0.0 0.00 0.00 0.00 67 1018.4
20260903171058 93 0 0.0 0.0 0.00 0.00 0.00 64 1018.5
20260903170558 93 0 0.0 0.0 0.00 0.00 0.00 65 1018.5
20260903170113 93 0 0.0 0.0 0.00 0.00 0.00 71 1018.6
20260903165556 93 0 0.0 0.0 0.00 0.00 0.00 66 1018.7
20260903165056 92 0 0.0 0.0 0.00 0.00 0.00 68 1018.8
20260903164604 92 0 0.0 0.0 0.00 0.00 0.00 69 1018.8
20260903164057 92 0 0.0 0.0 0.00 0.00 0.00 70 1018.9
20260903163557 91 0 0.0 0.0 0.00 0.00 0.00 70 1018.9
20260903163108 91 0 0.0 0.0 0.00 0.00 0.00 74 1018.9
20260903162557 91 0 0.0 0.0 0.00 0.00 0.00 74 1019.0
20260903162057 90 0 0.0 0.0 0.00 0.00 0.00 74 1019.0
20260903161605 90 0 0.0 0.0 0.00 0.00 0.00 72 1019.0
20260903161057 90 0 0.0 0.0 0.00 0.00 0.00 76 1019.0
20260903160557 90 0 0.0 0.0 0.00 0.00 0.00 77 1019.0
20260903160105 89 0 0.0 0.0 0.00 0.00 0.00 76 1019.1
20260903155557 89 0 0.0 0.0 0.00 0.00 0.00 75 1019.2
20260903155057 88 0 0.0 0.0 0.00 0.00 0.00 77 1019.2
20260903154610 88 0 0.0 0.0 0.00 0.00 0.00 78 1019.1
20260903154057 88 0 0.0 0.0 0.00 0.00 0.00 80 1019.1
20260903153559 87 0 0.0 0.0 0.00 0.00 0.00 79 1019.2
20260903153103 87 0 0.0 0.0 0.00 0.00 0.00 79 1019.2
20260903152600 86 0 0.0 0.0 0.00 0.00 0.00 80 1019.1
20260903152057 86 0 0.0 0.0 0.00 0.00 0.00 83 1019.2
20260903151602 85 0 0.0 0.0 0.00 0.00 0.00 82 1019.2
20260903151057 84 0 0.0 0.0 0.00 0.00 0.00 84 1019.2
20260903150600 83 0 0.0 0.0 0.00 0.00 0.00 84 1019.1
20260903150115 83 0 0.0 0.0 0.00 0.00 0.00 84 1019.2
20260903145557 82 0 0.0 0.0 0.00 0.00 0.00 85 1019.1
20260903145057 81 0 0.0 0.0 0.00 0.00 0.00 89 1019.1
20260903144607 80 0 0.0 0.0 0.00 0.00 0.00 89 1019.1
20260903144102 80 0 0.0 0.0 0.00 0.00 0.00 92 1019.2
20260903143600 80 0 0.0 0.0 0.00 0.00 0.00 93 1019.1
20260903143105 79 0 0.0 0.0 0.00 0.00 0.00 92 1019.2
20260903142601 79 0 0.0 0.0 0.00 0.00 0.00 93 1019.1
20260903142101 78 0 0.0 0.0 0.00 0.00 0.00 95 1019.2
20260903141602 78 0 0.0 0.0 0.00 0.00 0.00 95 1019.2
20260903141100 77 0 0.0 0.0 0.00 0.00 0.00 96 1019.1
20260903140557 77 0 0.0 0.0 0.00 0.00 0.00 97 1019.2
20260903140104 76 0 0.0 0.0 0.00 0.00 0.00 98 1019.2
20260903135602 76 0 0.0 0.0 0.00 0.00 0.00 99 1019.3
20260903135100 75 0 0.0 0.0 0.00 0.00 0.00 99 1019.2
20260903134606 75 0 0.0 0.0 0.00 0.00 0.00 99 1019.2
20260903134105 75 0 0.0 0.0 0.00 0.00 0.00 99 1019.2
20260903133600 74 0 0.0 0.0 0.00 0.00 0.00 99 1019.1
20260903133109 74 0 0.0 0.0 0.00 0.00 0.00 99 1019.1
20260903132558 74 0 0.0 0.0 0.00 0.00 0.00 100 1019.1
20260903132103 74 0 0.0 0.0 0.00 0.00 0.00 99 1019.2
20260903131609 74 0 0.0 0.0 0.00 0.00 0.00 100 1019.1
20260903131101 73 0 0.0 0.0 0.00 0.00 0.00 99 1019.2
20260903130600 73 0 0.0 0.0 0.00 0.00 0.00 100 1019.2
20260903130117 73 0 0.0 0.0 0.00 0.00 0.00 99 1019.1
20260903125600 72 0 0.0 0.0 0.00 0.00 0.00 99 1019.2
20260903125101 72 0 0.0 0.0 0.00 0.00 0.00 99 1019.3
20260903124620 72 0 0.0 0.0 0.00 0.00 0.00 99 1019.2
20260903124057 72 0 0.0 0.0 0.00 0.00 0.00 99 1019.4
20260903123557 72 0 0.0 0.0 0.00 0.00 0.00 99 1019.4
20260903123107 71 0 0.0 0.0 0.00 0.00 0.00 99 1019.4
20260903122602 71 0 0.0 0.0 0.00 0.00 0.00 99 1019.4
20260903122101 71 0 0.0 0.0 0.00 0.00 0.00 99 1019.4
20260903121610 71 0 0.0 0.0 0.00 0.00 0.00 99 1019.4
20260903121100 71 0 0.0 0.0 0.00 0.00 0.00 99 1019.3
20260903120604 71 0 0.0 0.0 0.00 0.00 0.00 99 1019.3
20260903120106 71 0 0.0 0.0 0.00 0.00 0.00 99 1019.2
20260903115557 71 0 0.0 0.0 0.00 0.00 0.00 99 1019.1
20260903115100 71 0 0.0 0.0 0.00 0.00 0.00 99 1019.1
20260903114608 71 0 0.0 0.0 0.00 0.00 0.00 99 1019.2
20260903114056 71 0 0.0 0.0 0.00 0.00 0.00 99 1019.1
20260903113557 71 0 0.0 0.0 0.00 0.00 0.00 99 1019.0
20260903113104 71 0 0.0 0.0 0.00 0.00 0.00 98 1018.8
20260903112602 71 0 0.0 0.0 0.00 0.00 0.00 99 1018.8
20260903112057 71 0 0.0 0.0 0.00 0.00 0.00 99 1018.6
20260903111625 71 0 0.0 0.0 0.00 0.00 0.00 98 1018.6
20260903111059 71 0 0.0 0.0 0.00 0.00 0.00 99 1018.7
20260903110557 71 0 0.0 0.0 0.00 0.00 0.00 99 1018.7
20260903110114 71 0 0.0 0.0 0.00 0.00 0.00 99 1018.6
20260903105558 71 0 0.0 0.0 0.00 0.00 0.00 99 1018.5
20260903105057 71 0 0.0 0.0 0.00 0.00 0.00 98 1018.5
20260903104633 71 0 0.0 0.0 0.00 0.00 0.00 98 1018.4
20260903104057 71 0 0.0 0.0 0.00 0.00 0.00 98 1018.5
20260903103559 71 0 0.0 0.0 0.00 0.00 0.00 98 1018.4
20260903103107 71 0 0.0 0.0 0.00 0.00 0.00 98 1018.4
20260903102559 71 0 0.0 0.0 0.00 0.00 0.00 98 1018.4
20260903102056 71 0 0.0 0.0 0.00 0.00 0.00 98 1018.3
20260903101607 71 0 0.0 0.0 0.00 0.00 0.00 98 1018.3
20260903101057 71 0 0.0 0.0 0.00 0.00 0.00 98 1018.3
20260903100557 71 0 0.0 0.0 0.00 0.00 0.00 98 1018.3
20260903100122 71 0 0.0 0.0 0.00 0.00 0.00 98 1018.2
20260903095557 71 0 0.0 0.0 0.00 0.00 0.00 98 1018.3
20260903095057 71 0 0.0 0.0 0.00 0.00 0.00 98 1018.3
20260903094619 71 0 0.0 0.0 0.00 0.00 0.00 98 1018.3
20260903094057 71 0 0.0 0.0 0.00 0.00 0.00 98 1018.3
20260903093558 71 0 0.0 0.0 0.00 0.00 0.00 98 1018.2
20260903093104 71 0 0.0 0.0 0.00 0.00 0.00 98 1018.2
20260903092556 72 0 0.0 0.0 0.00 0.00 0.00 98 1018.2
20260903092057 72 0 0.0 0.0 0.00 0.00 0.00 98 1018.3
20260903091612 72 0 0.0 0.0 0.00 0.00 0.00 98 1018.2
20260903091059 72 0 0.0 0.0 0.00 0.00 0.00 98 1018.1
20260903090556 72 0 0.0 0.0 0.00 0.00 0.00 98 1018.2
20260903090109 72 0 0.0 0.0 0.00 0.00 0.00 98 1018.2
20260903085557 72 0 0.0 0.0 0.00 0.00 0.00 98 1018.2
20260903085100 72 0 0.0 0.0 0.00 0.00 0.00 98 1018.3
20260903084624 72 0 0.0 0.0 0.00 0.00 0.00 98 1018.2
20260903084057 72 0 0.0 0.0 0.00 0.00 0.00 98 1018.2
20260903083558 72 0 0.0 0.0 0.00 0.00 0.00 98 1018.2
20260903083105 72 0 0.0 0.0 0.00 0.00 0.00 98 1018.2
20260903082557 72 0 0.0 0.0 0.00 0.00 0.00 98 1018.1
20260903082056 72 0 0.0 0.0 0.00 0.00 0.00 98 1018.1
20260903081603 72 0 0.0 0.0 0.00 0.00 0.00 98 1018.0
20260903081058 72 0 0.0 0.0 0.00 0.00 0.00 98 1018.1
20260903080559 72 0 0.0 0.0 0.00 0.00 0.00 98 1018.1
20260903080109 72 0 0.0 0.0 0.00 0.00 0.00 98 1018.1
20260903075558 72 0 0.0 0.0 0.00 0.00 0.00 98 1018.0
20260903075056 72 0 0.0 0.0 0.00 0.00 0.00 98 1018.1
20260903074605 72 0 0.0 0.0 0.00 0.00 0.00 98 1018.0
20260903074057 73 0 0.0 0.0 0.00 0.00 0.00 98 1018.1
20260903073557 73 0 0.0 0.0 0.00 0.00 0.00 98 1018.1
20260903073111 73 0 0.0 0.0 0.00 0.00 0.00 98 1018.0
20260903072600 73 0 0.0 0.0 0.00 0.00 0.00 98 1018.0
20260903072056 73 0 0.0 0.0 0.00 0.00 0.00 98 1018.1
20260903071606 73 0 0.0 0.0 0.00 0.00 0.00 98 1018.0
20260903071056 73 0 0.0 0.0 0.00 0.00 0.00 98 1018.0
20260903070559 73 0 0.0 0.0 0.00 0.00 0.00 98 1017.9
20260903070110 73 0 0.0 0.0 0.00 0.00 0.00 98 1017.9
20260903065557 73 0 0.0 0.0 0.00 0.00 0.00 98 1017.8
20260903065057 73 0 0.0 0.0 0.00 0.00 0.00 97 1017.8
20260903064602 73 0 0.0 0.0 0.00 0.00 0.00 97 1017.9
20260903064057 73 0 0.0 0.0 0.00 0.00 0.00 97 1017.9
20260903063558 73 0 0.0 0.0 0.00 0.00 0.00 97 1017.9
20260903063102 73 0 0.0 0.0 0.00 0.00 0.00 97 1017.9
20260903062557 73 0 0.0 0.0 0.00 0.00 0.00 97 1018.0
20260903062057 73 0 0.0 0.0 0.00 0.00 0.00 97 1018.0
20260903061612 73 0 0.0 0.0 0.00 0.00 0.00 97 1018.0
20260903061056 73 0 0.0 0.0 0.00 0.00 0.00 97 1018.0
20260903060556 73 0 0.0 0.0 0.00 0.00 0.00 97 1018.1
20260903060108 74 0 0.0 0.0 0.00 0.00 0.00 97 1018.0
20260903055556 74 0 0.0 0.0 0.00 0.00 0.00 97 1018.1
20260903055058 74 0 0.0 0.0 0.00 0.00 0.00 97 1018.2
20260903054605 74 0 0.0 0.0 0.00 0.00 0.00 97 1018.2
20260903054057 74 0 0.0 0.0 0.00 0.00 0.00 97 1018.2
20260903053558 74 0 0.0 0.0 0.00 0.00 0.00 97 1018.2
20260903053112 74 0 0.0 0.0 0.00 0.00 0.00 97 1018.2
20260903052611 74 0 0.0 0.0 0.00 0.00 0.00 97 1018.2
20260903052057 74 0 0.0 0.0 0.00 0.00 0.00 97 1018.2
20260903051611 74 0 0.0 0.0 0.00 0.00 0.00 97 1018.0
20260903051058 74 0 0.0 0.0 0.00 0.00 0.00 97 1018.1
20260903050559 74 0 0.0 0.0 0.00 0.00 0.00 97 1018.1
20260903050111 74 0 0.0 0.0 0.00 0.00 0.00 96 1018.1
20260903045559 74 0 0.0 0.0 0.00 0.00 0.00 96 1018.1
20260903045058 74 0 0.0 0.0 0.00 0.00 0.00 96 1018.1
20260903044608 74 0 0.0 0.0 0.00 0.00 0.00 96 1018.1
20260903044058 74 0 0.0 0.0 0.00 0.00 0.00 96 1018.1
20260903043559 75 0 0.0 0.0 0.00 0.00 0.00 97 1018.2
20260903043107 75 0 0.0 0.0 0.00 0.00 0.00 96 1018.0
20260903042559 75 0 0.0 0.0 0.00 0.00 0.00 96 1018.0
20260903042059 75 0 0.0 0.0 0.00 0.00 0.00 96 1018.0
20260903041606 75 0 0.0 0.0 0.00 0.00 0.00 96 1017.9
20260903041058 75 0 0.0 0.0 0.00 0.00 0.00 96 1017.9
20260903040558 75 0 0.0 0.0 0.00 0.00 0.00 96 1017.9
20260903040110 75 0 0.0 0.0 0.00 0.00 0.00 96 1017.9
20260903035602 75 0 0.0 0.0 0.00 0.00 0.00 96 1017.9
20260903035058 75 0 0.0 0.0 0.00 0.00 0.00 96 1018.0
20260903034603 75 0 0.0 0.0 0.00 0.00 0.00 96 1018.0
20260903034059 76 0 0.0 0.0 0.00 0.00 0.00 96 1018.1
20260903033558 76 0 0.0 0.0 0.00 0.00 0.00 96 1018.0
20260903033105 76 0 0.0 0.0 0.00 0.00 0.00 96 1018.0
20260903032601 76 0 0.0 0.0 0.00 0.00 0.00 95 1018.1
20260903032059 76 0 0.0 0.0 0.00 0.00 0.00 96 1018.0
20260903031619 76 0 0.0 0.0 0.00 0.00 0.00 95 1018.1
20260903031058 76 0 0.0 0.0 0.00 0.00 0.00 95 1018.2
20260903030559 76 0 0.0 0.0 0.00 0.00 0.00 95 1018.1
20260903030116 76 0 0.0 0.0 0.00 0.00 0.00 95 1018.2
20260903025558 76 0 0.0 0.0 0.00 0.00 0.00 95 1018.2
20260903025058 76 0 0.0 0.0 0.00 0.00 0.00 95 1018.2
20260903024601 76 0 0.0 0.0 0.00 0.00 0.00 95 1018.3
20260903024058 77 0 0.0 0.0 0.00 0.00 0.00 95 1018.2
20260903023558 77 0 0.0 0.0 0.00 0.00 0.00 95 1018.2
20260903023106 77 0 0.0 0.0 0.00 0.00 0.00 95 1018.0
20260903022600 77 0 0.0 0.0 0.00 0.00 0.00 94 1018.0
20260903022059 77 0 0.0 0.0 0.00 0.00 0.00 94 1018.1
20260903021604 77 0 0.0 0.0 0.00 0.00 0.00 94 1018.1
20260903021059 77 0 0.0 0.0 0.00 0.00 0.00 94 1018.1
20260903020600 77 0 0.0 0.0 0.00 0.00 0.00 94 1018.0
20260903020106 77 0 0.0 0.0 0.00 0.00 0.00 94 1017.9
20260903015558 77 0 0.0 0.0 0.00 0.00 0.00 94 1018.1
20260903015058 77 0 0.0 0.0 0.00 0.00 0.00 94 1017.9
20260903014612 77 0 0.0 0.0 0.00 0.00 0.00 93 1017.9
20260903014102 78 0 0.0 0.0 0.00 0.00 0.00 93 1017.8
20260903013602 78 0 0.0 0.0 0.00 0.00 0.00 93 1017.8
20260903013105 78 0 0.0 0.0 0.00 0.00 0.00 93 1017.8
20260903012600 78 0 0.0 0.0 0.00 0.00 0.00 93 1017.8
20260903012059 78 0 0.0 0.0 0.00 0.00 0.00 93 1017.7
20260903011612 78 0 0.0 0.0 0.00 0.00 0.00 93 1017.6
20260903011058 78 0 0.0 0.0 0.00 0.00 0.00 93 1017.6
20260903010558 79 0 0.0 0.0 0.00 0.00 0.00 93 1017.6
20260903010119 79 0 0.0 0.0 0.00 0.00 0.00 93 1017.5
20260903005559 79 0 0.0 0.0 0.00 0.00 0.00 92 1017.4
20260903005059 79 0 0.0 0.0 0.00 0.00 0.00 92 1017.5
20260903004602 79 0 0.0 0.0 0.00 0.00 0.00 92 1017.4
20260903004058 80 0 0.0 0.0 0.00 0.00 0.00 92 1017.4
20260903003558 80 0 0.0 0.0 0.00 0.00 0.00 92 1017.3
20260903003107 80 0 0.0 0.0 0.00 0.00 0.00 91 1017.3
20260903002558 80 0 0.0 0.0 0.00 0.00 0.00 91 1017.3
20260903002058 81 0 0.0 0.0 0.00 0.00 0.00 91 1017.3
20260903001607 81 0 0.0 0.0 0.00 0.00 0.00 90 1017.3
20260903001102 81 0 0.0 0.0 0.00 0.00 0.00 90 1017.2
20260903000558 81 0 0.0 0.0 0.00 0.00 0.00 90 1017.2
20260903000103 82 0 0.0 0.0 0.00 0.00 0.00 90 1017.2
20260902235559 82 0 0.0 0.0 0.00 0.00 0.00 89 1017.1
20260902235058 82 0 0.0 0.0 0.00 0.00 0.00 89 1017.3
20260902234600 83 0 0.0 0.0 0.00 0.00 0.00 89 1017.2
20260902234058 83 0 0.0 0.0 0.00 0.00 0.00 88 1017.3
20260902233558 83 0 0.0 0.0 0.00 0.00 0.00 88 1017.2
20260902233104 84 0 0.0 0.0 0.00 0.00 0.00 87 1017.2
20260902232558 84 0 0.0 0.0 0.00 0.00 0.00 87 1017.2
20260902232058 84 0 0.0 0.0 0.00 0.00 0.00 86 1017.2
20260902231623 85 0 0.0 0.0 0.00 0.00 0.00 87 1017.2
20260902231059 85 0 0.0 0.0 0.00 0.00 0.00 86 1017.3
20260902230601 85 0 0.0 0.0 0.00 0.00 0.00 86 1017.2
20260902230105 85 0 0.0 0.0 0.00 0.00 0.00 85 1017.2
20260902225559 85 0 0.0 0.0 0.00 0.00 0.00 85 1017.2
20260902225059 86 0 0.0 0.0 0.00 0.00 0.00 85 1017.2
20260902224606 86 0 0.0 0.0 0.00 0.00 0.00 84 1017.3
20260902224102 86 0 0.0 0.0 0.00 0.00 0.00 84 1017.3
20260902223558 87 0 0.0 0.0 0.00 0.00 0.00 82 1017.3
20260902223111 87 0 0.0 0.0 0.00 0.00 0.00 82 1017.2
20260902222558 88 0 0.0 0.0 0.00 0.00 0.00 81 1017.2
20260902222058 88 0 0.0 0.0 0.00 0.00 0.00 80 1017.2
20260902221628 89 0 0.0 0.0 0.00 0.00 0.00 79 1017.2
20260902221102 89 0 0.0 0.0 0.00 0.00 0.00 78 1017.2
20260902220558 90 0 0.0 0.0 0.00 0.00 0.00 76 1017.4
20260902220106 91 0 0.0 0.0 0.00 0.00 0.00 75 1017.5
20260902215559 91 0 0.0 0.0 0.00 0.00 0.00 73 1017.4
20260902215058 92 0 0.0 0.0 0.00 0.00 0.00 74 1017.4
20260902214606 92 0 0.0 0.0 0.00 0.00 0.00 73 1017.4
20260902214100 93 0 0.0 0.0 0.00 0.00 0.00 72 1017.3
20260902213559 93 0 0.0 0.0 0.00 0.00 0.00 71 1017.4
20260902213107 93 0 0.0 0.0 0.00 0.00 0.00 71 1017.5
20260902212558 93 0 0.0 0.0 0.00 0.00 0.00 70 1017.5
20260902212057 94 0 0.0 0.0 0.00 0.00 0.00 68 1017.5
20260902211603 94 0 0.0 0.0 0.00 0.00 0.00 67 1017.5
20260902211058 95 0 0.0 0.0 0.00 0.00 0.00 66 1017.6
20260902210602 95 0 0.0 0.0 0.00 0.00 0.00 65 1017.5
20260902210112 95 0 0.0 0.0 0.00 0.00 0.00 64 1017.6
20260902205601 95 0 0.0 0.0 0.00 0.00 0.00 65 1017.6
20260902205058 96 0 0.0 0.0 0.00 0.00 0.00 61 1017.6
20260902204603 96 0 0.0 0.0 0.00 0.00 0.00 65 1017.6
20260902204058 96 0 0.0 0.0 0.00 0.00 0.00 62 1017.6
20260902203558 96 0 0.0 0.0 0.00 0.00 0.00 60 1017.7
20260902203100 96 0 0.0 0.0 0.00 0.00 0.00 60 1017.8
20260902202559 96 0 0.0 0.0 0.00 0.00 0.00 64 1017.9
20260902202058 96 0 0.0 0.0 0.00 0.00 0.00 66 1017.9
20260902201611 96 0 0.0 0.0 0.00 0.00 0.00 59 1017.9
20260902201059 96 0 0.0 0.0 0.00 0.00 0.00 57 1018.1
20260902200558 96 0 0.0 0.0 0.00 0.00 0.00 64 1018.0
20260902200105 96 0 0.0 0.0 0.00 0.00 0.00 67 1018.0
20260902195559 96 0 0.0 0.0 0.00 0.00 0.00 58 1018.2